Freeport, IL

3:08 PM CST on December 11, 2019 (GMT -0600)
Albertus

Weather History for KFEP - October, 2019

Change the Weather History Date:

Saturday, October 19, 2019

  Actual Average Record
Temperature  
Mean Temperature 54 °F -  
Max Temperature 62 °F 56 °F 73 °F (2015)
Min Temperature 45 °F 34 °F 20 °F (1992)
Degree Days  
Heating Degree Days 12    
Growing Degree Days 4 (Base 50)    
Moisture  
Dew Point 45 °F    
Average Humidity 76    
Maximum Humidity 100    
Minimum Humidity 55    
Precipitation  
Precipitation 0.00 in - - ()
Sea Level Pressure  
Sea Level Pressure 29.79 in    
Wind  
Wind Speed 8 mph (SW)    
Max Wind Speed 15 mph    
Max Gust Speed 21 mph    
Visibility 10 miles    
Events Rain    
Averages and records for this station are not official NWS values.
T = Trace of Precipitation, MM = Missing Value Source: NWS Daily Summary

Daily Weather History Graph

Daily Weather History Graph

Search for Another Location

Airport or City:

Astronomy

Oct. 19, 2019 Rise Set
Actual Time 7:15 AM CDT 6:10 PM CDT
Civil Twilight 6:47 AM CDT 6:38 PM CDT
Nautical Twilight 6:14 AM CDT 7:11 PM CDT
Astronomical Twilight 5:41 AM CDT 7:43 PM CDT
Moon 10:14 PM CDT (10/19) 12:52 PM CDT (10/19)
Length of Visible Light 11h 51m
Length of Day
10h 55m
Waning Gibbous, 69% of the Moon is Illuminated
Oct 19
Waning Gibbous
Oct 21
Last Quarter
Oct 27
New
Nov 4
First Quarter
Nov 12
Full

Hourly Weather History & Observations

Time (CDT) Temp. Windchill Dew Point Humidity Pressure Visibility Wind Dir Wind Speed Gust Speed Precip Events Conditions
12:15 AM 47.5 °F - 39.0 °F 72% 29.85 in 10.0 mi South 6.9 mph - N/A   Clear
12:35 AM 46.8 °F - 39.2 °F 75% 29.85 in 10.0 mi South 6.9 mph - N/A   Clear
12:55 AM 45.9 °F 42.9 °F 38.8 °F 76% 29.85 in 10.0 mi SSE 5.8 mph - N/A   Clear
1:15 AM 47.3 °F - 39.6 °F 74% 29.84 in 10.0 mi South 8.1 mph - N/A   Clear
1:35 AM 46.8 °F - 39.2 °F 75% 29.85 in 10.0 mi South 5.8 mph - N/A   Clear
1:55 AM 45.7 °F 44.4 °F 39.2 °F 78% 29.85 in 10.0 mi South 3.5 mph - N/A   Clear
2:15 AM 45.5 °F 43.2 °F 39.2 °F 79% 29.85 in 10.0 mi South 4.6 mph - N/A   Clear
2:35 AM 45.7 °F 43.4 °F 39.2 °F 78% 29.85 in 10.0 mi South 4.6 mph - N/A   Clear
2:55 AM 45.5 °F 41.8 °F 39.4 °F 79% 29.85 in 10.0 mi South 6.9 mph - N/A   Clear
3:15 AM 46.2 °F 41.7 °F 39.6 °F 78% 29.84 in 10.0 mi South 9.2 mph - N/A   Clear
3:35 AM 46.4 °F 42.4 °F 39.6 °F 77% 29.84 in 10.0 mi South 8.1 mph - N/A   Clear
3:55 AM 46.4 °F 44.3 °F 39.6 °F 77% 29.83 in 10.0 mi South 4.6 mph - N/A   Clear
4:15 AM 45.7 °F 42.7 °F 39.9 °F 80% 29.83 in 10.0 mi South 5.8 mph - N/A   Clear
4:35 AM 46.4 °F 42.4 °F 40.1 °F 79% 29.83 in 10.0 mi South 8.1 mph - N/A   Clear
4:55 AM 46.4 °F 42.4 °F 40.1 °F 79% 29.82 in 10.0 mi South 8.1 mph - N/A   Clear
5:15 AM 46.6 °F - 40.1 °F 78% 29.82 in 10.0 mi South 8.1 mph - N/A   Clear
5:35 AM 46.4 °F 42.9 °F 40.1 °F 79% 29.83 in 10.0 mi South 6.9 mph - N/A   Clear
5:55 AM 46.8 °F - 40.1 °F 78% 29.82 in 10.0 mi South 8.1 mph - N/A   Clear
6:15 AM 46.2 °F 40.8 °F 40.1 °F 79% 29.82 in 10.0 mi South 11.5 mph - N/A   Clear
6:35 AM 45.9 °F 40.0 °F 40.1 °F 80% 29.81 in 10.0 mi South 12.7 mph - N/A   Clear
6:55 AM 46.0 °F 40.2 °F 39.7 °F 79% 29.80 in 10.0 mi South 12.7 mph 17.3 mph N/A   Clear
7:15 AM 46.0 °F 39.9 °F 40.1 °F 80% 29.80 in 10.0 mi South 13.8 mph - N/A   Clear
7:35 AM 46.8 °F - 40.1 °F 78% 29.80 in 10.0 mi South 12.7 mph - N/A   Clear
7:55 AM 47.1 °F - 40.3 °F 77% 29.80 in 10.0 mi South 11.5 mph - N/A   Clear
8:15 AM 48.0 °F - 40.6 °F 76% 29.80 in 10.0 mi South 11.5 mph 17.3 mph N/A   Clear
8:35 AM 49.6 °F - 40.8 °F 72% 29.80 in 10.0 mi South 13.8 mph - N/A   Clear
8:55 AM 51.3 °F - 41.5 °F 69% 29.80 in 10.0 mi South 13.8 mph 18.4 mph N/A   Clear
9:15 AM 52.7 °F - 41.5 °F 66% 29.80 in 10.0 mi SSW 15.0 mph - N/A   Clear
9:35 AM 53.8 °F - 41.9 °F 64% 29.80 in 10.0 mi SSW 11.5 mph - N/A   Clear
9:55 AM 54.0 °F - 41.9 °F 64% 29.79 in 10.0 mi SSW 11.5 mph 20.7 mph N/A   Clear
10:15 AM 55.8 °F - 42.8 °F 62% 29.78 in 10.0 mi SSW 13.8 mph 18.4 mph N/A   Clear
10:35 AM 57.7 °F - 43.7 °F 60% 29.79 in 10.0 mi SSW 12.7 mph - N/A   Clear
10:55 AM 57.2 °F - 43.2 °F 59% 29.79 in 10.0 mi SSW 12.7 mph - N/A   Clear
11:15 AM 58.3 °F - 43.9 °F 59% 29.78 in 10.0 mi SSW 12.7 mph 16.1 mph N/A   Clear
11:35 AM 59.9 °F - 45.1 °F 58% 29.78 in 10.0 mi SW 9.2 mph - N/A   Clear
11:55 AM 59.9 °F - 45.0 °F 58% 29.77 in 10.0 mi SW 11.5 mph - N/A   Clear
12:15 PM 61.3 °F - 45.3 °F 56% 29.77 in 10.0 mi SW 8.1 mph - N/A   Clear
12:35 PM 61.3 °F - 45.1 °F 55% 29.76 in 10.0 mi WSW 8.1 mph - N/A   Clear
12:55 PM 62.4 °F - 46.4 °F 56% 29.76 in 10.0 mi SW 9.2 mph - N/A   Clear
1:15 PM 61.0 °F - 45.7 °F 57% 29.75 in 10.0 mi WSW 6.9 mph - N/A   Clear
1:35 PM 61.3 °F - 45.9 °F 57% 29.74 in 10.0 mi WSW 8.1 mph - N/A   Clear
1:55 PM 61.5 °F - 46.2 °F 57% 29.74 in 10.0 mi WSW 6.9 mph - N/A   Clear
2:15 PM 61.3 °F - 46.0 °F 57% 29.74 in 10.0 mi SW 10.4 mph - N/A   Clear
2:35 PM 61.2 °F - 46.4 °F 58% 29.74 in 10.0 mi WSW 10.4 mph - N/A   Mostly Cloudy
2:55 PM 61.7 °F - 46.6 °F 58% 29.74 in 10.0 mi West 6.9 mph - N/A   Mostly Cloudy
3:15 PM 60.8 °F - 46.0 °F 58% 29.74 in 10.0 mi West 5.8 mph - N/A   Scattered Clouds
3:35 PM 59.5 °F - 46.4 °F 62% 29.74 in 10.0 mi West 3.5 mph - N/A   Mostly Cloudy
3:55 PM 59.0 °F - 46.6 °F 63% 29.74 in 7.0 mi West 3.5 mph - N/A   Overcast
4:15 PM 59.0 °F - 46.8 °F 64% 29.75 in 10.0 mi West 5.8 mph - N/A   Overcast
4:35 PM 58.6 °F - 47.1 °F 66% 29.75 in 10.0 mi West 5.8 mph - N/A   Overcast
4:55 PM 58.3 °F - 47.3 °F 67% 29.75 in 10.0 mi West 3.5 mph - N/A   Overcast
5:15 PM 58.1 °F - 47.1 °F 67% 29.74 in 10.0 mi WSW 3.5 mph - N/A   Overcast
5:35 PM 56.3 °F - 48.2 °F 74% 29.75 in 10.0 mi Calm Calm - N/A   Overcast
5:55 PM 54.9 °F - 48.9 °F 80% 29.74 in 10.0 mi NW 3.5 mph - N/A Rain Light Rain
6:15 PM 54.1 °F - 50.0 °F 86% 29.76 in 10.0 mi West 4.6 mph - N/A   Overcast
6:35 PM 53.6 °F - 49.8 °F 87% 29.76 in 10.0 mi West 3.5 mph - N/A   Overcast
6:55 PM 53.1 °F - 50.4 °F 91% 29.76 in 10.0 mi West 4.6 mph - N/A   Overcast
7:15 PM 52.9 °F - 50.9 °F 93% 29.76 in 10.0 mi WNW 4.6 mph - N/A   Overcast
7:35 PM 52.7 °F - 50.9 °F 94% 29.77 in 10.0 mi WNW 5.8 mph - N/A   Overcast
7:55 PM 52.3 °F - 51.3 °F 96% 29.77 in 10.0 mi WNW 5.8 mph - N/A   Overcast
8:15 PM 52.0 °F - 51.8 °F 99% 29.78 in 10.0 mi WNW 6.9 mph - N/A   Overcast
8:35 PM 51.8 °F - 51.4 °F 99% 29.78 in 10.0 mi WNW 5.8 mph - N/A   Overcast
8:55 PM 51.4 °F - 51.4 °F 100% 29.77 in 10.0 mi West 3.5 mph - N/A   Overcast
9:15 PM 51.3 °F - 51.3 °F 100% 29.78 in 10.0 mi WSW 3.5 mph - N/A   Overcast
9:35 PM 51.4 °F - 51.4 °F 100% 29.78 in 10.0 mi West 3.5 mph - N/A   Overcast
9:55 PM 50.9 °F - 50.9 °F 100% 29.78 in 10.0 mi West 5.8 mph - N/A   Overcast
10:15 PM 50.4 °F - 50.4 °F 100% 29.79 in 10.0 mi West 4.6 mph - N/A   Overcast
10:35 PM 49.3 °F - 49.3 °F 100% 29.79 in 7.0 mi West 3.5 mph - N/A   Overcast
10:55 PM 49.6 °F - 49.6 °F 100% 29.79 in 7.0 mi WNW 8.1 mph - N/A   Overcast
11:15 PM 49.8 °F - 49.8 °F 100% 29.80 in 7.0 mi WNW 3.5 mph - N/A   Overcast
11:35 PM 50.0 °F - 50.0 °F 100% 29.80 in 7.0 mi Calm Calm - N/A   Overcast
11:55 PM 50.2 °F - 50.2 °F 100% 29.80 in 7.0 mi WNW 6.9 mph - N/A   Overcast